Time,TemperatureF,DewpointF,PressureIn,WindDirection,WindDirectionDegrees,WindSpeedMPH,WindSpeedGustMPH,Humidity,HourlyPrecipIn,Conditions,Clouds,dailyrainin,SoftwareType,DateUTC
2013-03-13 00:00:00,49.0,34.0,30.05,NNW,340,25.0,-999.0,55,-99.99,,,-99.99,,2013-03-13 05:00:00,
2013-03-13 00:21:00,49.0,34.0,30.05,NNW,340,25.0,-999.0,55,-99.99,,,-99.99,,2013-03-13 05:21:00,
2013-03-13 00:31:00,49.0,34.0,30.05,NNW,340,25.0,-999.0,55,-99.99,,,-99.99,,2013-03-13 05:31:00,
2013-03-13 00:42:00,49.0,34.0,30.05,NNW,340,25.0,-999.0,55,-99.99,,,-99.99,,2013-03-13 05:42:00,
2013-03-13 00:51:00,49.0,34.0,30.05,NNW,340,25.0,-999.0,55,-99.99,,,-99.99,,2013-03-13 05:51:00,
2013-03-13 01:00:00,49.0,39.0,30.05,North,350,21.0,-999.0,68,-99.99,,,-99.99,,2013-03-13 06:00:00,
2013-03-13 01:21:00,49.0,39.0,30.05,North,350,21.0,-999.0,68,-99.99,,,-99.99,,2013-03-13 06:21:00,
2013-03-13 01:31:00,49.0,39.0,30.05,North,350,21.0,-999.0,68,-99.99,,,-99.99,,2013-03-13 06:31:00,
2013-03-13 01:41:00,49.0,39.0,30.05,North,350,21.0,-999.0,68,-99.99,,,-99.99,,2013-03-13 06:41:00,
2013-03-13 01:52:00,49.0,39.0,30.05,North,350,21.0,-999.0,68,-99.99,,,-99.99,,2013-03-13 06:52:00,
2013-03-13 04:00:00,50.0,39.0,30.03,NNE,20,21.0,-999.0,66,-99.99,,,-99.99,,2013-03-13 09:00:00,
2013-03-13 04:21:00,50.0,39.0,30.03,NNE,20,21.0,-999.0,66,-99.99,,,-99.99,,2013-03-13 09:21:00,
2013-03-13 04:31:00,50.0,39.0,30.03,NNE,20,21.0,-999.0,66,-99.99,,,-99.99,,2013-03-13 09:31:00,
2013-03-13 04:41:00,50.0,39.0,30.03,NNE,20,21.0,-999.0,66,-99.99,,,-99.99,,2013-03-13 09:41:00,
2013-03-13 04:52:00,50.0,39.0,30.03,NNE,20,21.0,-999.0,66,-99.99,,,-99.99,,2013-03-13 09:52:00,
2013-03-13 05:00:00,50.0,39.0,30.03,North,350,23.0,-999.0,66,-99.99,,,-99.99,,2013-03-13 10:00:00,
2013-03-13 05:31:00,50.0,39.0,30.03,North,350,23.0,-999.0,66,-99.99,,,-99.99,,2013-03-13 10:31:00,
2013-03-13 05:41:00,50.0,39.0,30.03,North,350,23.0,-999.0,66,-99.99,,,-99.99,,2013-03-13 10:41:00,
2013-03-13 05:52:00,50.0,39.0,30.03,North,350,23.0,-999.0,66,-99.99,,,-99.99,,2013-03-13 10:52:00,
2013-03-13 06:00:00,46.0,34.0,30.03,North,350,21.0,-999.0,61,-99.99,,,-99.99,,2013-03-13 11:00:00,
2013-03-13 06:11:00,46.0,34.0,30.03,North,350,21.0,-999.0,61,-99.99,,,-99.99,,2013-03-13 11:11:00,
2013-03-13 06:21:00,46.0,34.0,30.03,North,350,21.0,-999.0,61,-99.99,,,-99.99,,2013-03-13 11:21:00,
2013-03-13 06:31:00,46.0,34.0,30.03,North,350,21.0,-999.0,61,-99.99,,,-99.99,,2013-03-13 11:31:00,
2013-03-13 06:41:00,46.0,34.0,30.03,North,350,21.0,-999.0,61,-99.99,,,-99.99,,2013-03-13 11:41:00,
2013-03-13 06:52:00,46.0,34.0,30.03,North,350,21.0,-999.0,61,-99.99,,,-99.99,,2013-03-13 11:52:00,
2013-03-13 07:00:00,56.0,37.0,30.04,North,350,24.0,-999.0,49,-99.99,,,-99.99,,2013-03-13 12:00:00,
2013-03-13 07:32:00,56.0,37.0,30.04,North,350,24.0,-999.0,49,-99.99,,,-99.99,,2013-03-13 12:32:00,
2013-03-13 07:41:00,56.0,37.0,30.04,North,350,24.0,-999.0,49,-99.99,,,-99.99,,2013-03-13 12:41:00,
2013-03-13 07:51:00,56.0,37.0,30.04,North,350,24.0,-999.0,49,-99.99,,,-99.99,,2013-03-13 12:51:00,
2013-03-13 08:00:00,55.0,39.0,30.05,North,350,22.0,-999.0,54,-99.99,,,-99.99,,2013-03-13 13:00:00,
2013-03-13 08:11:00,55.0,39.0,30.05,North,350,22.0,-999.0,54,-99.99,,,-99.99,,2013-03-13 13:11:00,
2013-03-13 08:21:00,55.0,39.0,30.05,North,350,22.0,-999.0,54,-99.99,,,-99.99,,2013-03-13 13:21:00,
2013-03-13 08:32:00,55.0,39.0,30.05,North,350,22.0,-999.0,54,-99.99,,,-99.99,,2013-03-13 13:32:00,
2013-03-13 08:41:00,55.0,39.0,30.05,North,350,22.0,-999.0,54,-99.99,,,-99.99,,2013-03-13 13:41:00,
2013-03-13 08:52:00,55.0,39.0,30.05,North,350,22.0,-999.0,54,-99.99,,,-99.99,,2013-03-13 13:52:00,
2013-03-13 09:00:00,55.0,41.0,30.00,North,350,24.0,-999.0,58,-99.99,,,-99.99,,2013-03-13 14:00:00,
2013-03-13 09:21:00,55.0,41.0,30.00,North,350,24.0,-999.0,58,-99.99,,,-99.99,,2013-03-13 14:21:00,
2013-03-13 09:32:00,55.0,41.0,30.00,North,350,24.0,-999.0,58,-99.99,,,-99.99,,2013-03-13 14:32:00,
2013-03-13 09:41:00,55.0,41.0,30.00,North,350,24.0,-999.0,58,-99.99,,,-99.99,,2013-03-13 14:41:00,
2013-03-13 09:51:00,55.0,41.0,30.00,North,350,24.0,-999.0,58,-99.99,,,-99.99,,2013-03-13 14:51:00,
2013-03-13 10:00:00,56.0,41.0,29.98,NNW,340,22.0,-999.0,56,-99.99,,,-99.99,,2013-03-13 15:00:00,
2013-03-13 10:21:00,56.0,41.0,29.98,NNW,340,22.0,-999.0,56,-99.99,,,-99.99,,2013-03-13 15:21:00,
2013-03-13 10:31:00,56.0,41.0,29.98,NNW,340,22.0,-999.0,56,-99.99,,,-99.99,,2013-03-13 15:31:00,
2013-03-13 10:41:00,56.0,41.0,29.98,NNW,340,22.0,-999.0,56,-99.99,,,-99.99,,2013-03-13 15:41:00,
2013-03-13 10:51:00,56.0,41.0,29.98,NNW,340,22.0,-999.0,56,-99.99,,,-99.99,,2013-03-13 15:51:00,
2013-03-13 12:00:00,54.0,39.0,29.94,NNW,340,18.0,-999.0,58,-99.99,,,-99.99,,2013-03-13 17:00:00,
2013-03-13 12:11:00,54.0,39.0,29.94,NNW,340,18.0,-999.0,58,-99.99,,,-99.99,,2013-03-13 17:11:00,
2013-03-13 12:21:00,54.0,39.0,29.94,NNW,340,18.0,-999.0,58,-99.99,,,-99.99,,2013-03-13 17:21:00,
2013-03-13 12:31:00,54.0,39.0,29.94,NNW,340,18.0,-999.0,58,-99.99,,,-99.99,,2013-03-13 17:31:00,
2013-03-13 12:41:00,54.0,39.0,29.94,NNW,340,18.0,-999.0,58,-99.99,,,-99.99,,2013-03-13 17:41:00,
2013-03-13 12:52:00,54.0,39.0,29.94,NNW,340,18.0,-999.0,58,-99.99,,,-99.99,,2013-03-13 17:52:00,
2013-03-13 13:00:00,50.0,39.0,29.94,NNW,340,36.0,-999.0,66,-99.99,,,-99.99,,2013-03-13 18:00:00,
2013-03-13 13:21:00,50.0,39.0,29.94,NNW,340,36.0,-999.0,66,-99.99,,,-99.99,,2013-03-13 18:21:00,
2013-03-13 13:32:00,50.0,39.0,29.94,NNW,340,36.0,-999.0,66,-99.99,,,-99.99,,2013-03-13 18:32:00,
2013-03-13 13:41:00,50.0,39.0,29.94,NNW,340,36.0,-999.0,66,-99.99,,,-99.99,,2013-03-13 18:41:00,
2013-03-13 13:51:00,50.0,39.0,29.94,NNW,340,36.0,-999.0,66,-99.99,,,-99.99,,2013-03-13 18:51:00,
2013-03-13 14:00:00,48.0,37.0,29.94,NNW,330,28.0,-999.0,66,-99.99,,,-99.99,,2013-03-13 19:00:00,
2013-03-13 14:11:00,48.0,37.0,29.94,NNW,330,28.0,-999.0,66,-99.99,,,-99.99,,2013-03-13 19:11:00,
2013-03-13 14:21:00,48.0,37.0,29.94,NNW,330,28.0,-999.0,66,-99.99,,,-99.99,,2013-03-13 19:21:00,
2013-03-13 14:31:00,48.0,37.0,29.94,NNW,330,28.0,-999.0,66,-99.99,,,-99.99,,2013-03-13 19:31:00,
2013-03-13 14:42:00,48.0,37.0,29.94,NNW,330,28.0,-999.0,66,-99.99,,,-99.99,,2013-03-13 19:42:00,
2013-03-13 14:52:00,48.0,37.0,29.94,NNW,330,28.0,-999.0,66,-99.99,,,-99.99,,2013-03-13 19:52:00,